Regional Weather Roundup
Issued by NWS Cleveland, OH

Home | Current Version | Previous Version | Graphics & Text | Print | Product List | Glossary On
Versions: 1 2 3 4 5 6 7 8 9 10 11 12 13 14 15 16 17 18 19 20 21 22 23 24 25 26 27 28 29 30 31 32 33 34 35 36 37 38 39 40 41 42 43 44 45 46 47 48 49 50
000
ASUS41 KCLE 260000
RWRCLE
OHIO REGIONAL WEATHER ROUNDUP
NATIONAL WEATHER SERVICE WILMINGTON, OH
800 PM EDT MON MAY 25 2015

NOTE: "FAIR" INDICATES FEW OR NO CLOUDS BELOW 12,000 FEET WITH NO
SIGNIFICANT WEATHER AND/OR OBSTRUCTIONS TO VISIBILITY.

OHZ001>008-015>018-024>027-034-035-043-044-260100-
   NORTHWEST OHIO

CITY           SKY/WX    TMP DP  RH WIND       PRES   REMARKS
DEFIANCE       MOCLDY    79  60  52 SW13G22   29.99R
FINDLAY        PTCLDY    76  62  62 S21       30.02R
TOLEDO EXPRESS MOCLDY    79  60  52 SW15G28   29.98R
TOLEDO EXEC    MOCLDY    80  59  48 SW21G30   29.99R
LIMA           PTCLDY    75  61  61 SW16      30.04R
$$

OHZ009>014-019>023-028>033-038-089-260100-
   NORTHEAST OHIO

CITY           SKY/WX    TMP DP  RH WIND       PRES   REMARKS
CLE-HOPKINS    PTCLDY    78  60  53 SW17G28   30.05R
CLE-LAKEFRONT  PTCLDY    80  59  48 S18G28    30.01S
CUY CO. ARPT   NOT AVBL
LORAIN-ELYRIA  PTCLDY    78  58  49 SW20G30   30.04R
ASHTABULA      MOCLDY    78  61  55 SW18G25   30.05R
AKRON-CANTON   MOCLDY    78  63  59 S14       30.08S
WOOSTER        NOT AVBL
MANSFIELD      MOCLDY    77  60  55 SW17      30.07S
YOUNGSTOWN     MOCLDY    76  61  59 S7G17     30.08R
$$

OHZ042-051>053-060>062-070>072-077>081-260100-
  SOUTHWEST OHIO

CITY           SKY/WX    TMP DP  RH WIND       PRES   REMARKS
CINC-COVINGTON CLOUDY    72  64  76 S5        30.10F
CINC-LUNKEN    CLOUDY    73  64  73 SW7       30.10S
HAMILTON       CLOUDY    75  64  68 S7        30.11R
DAYTON         NOT AVBL
WRIGHT-PAT AFB NOT AVBL
DAYTON GENERAL MOCLDY    74  63  68 SW14      30.10R
WILMINGTON     MOCLDY    75  61  61 SW12      30.11R
$$

OHZ036-037-039>041-045>050-054>059-063>069-073>076-082>088-260100-
  CENTRAL AND SOUTHEAST OHIO

CITY           SKY/WX    TMP DP  RH WIND       PRES   REMARKS
COLUMBUS       MOCLDY    79  59  50 SW16G24   30.09R
OSU AIRPORT    PTCLDY    77  60  55 SW14G32   30.09R
BOLTON FIELD   NOT AVBL
RICKENBACK AFB NOT AVBL
NEWARK         CLEAR     78  59  51 SW14G22   30.09R
MARION         PTCLDY    76  60  57 SW12G21   30.07S
LANCASTER      PTCLDY    79  60  52 SW9       30.10S
ZANESVILLE     MOCLDY    78  61  55 S10       30.11R
NEW PHILLY     PTCLDY    81  62  52 S9        30.10R
$$


USA.gov is the U.S. government's official web portal to all federal, state and local government web resources and services.